Location: Port-Aux-Quilles Astronomical Observatory
(47.9769°N, 69.9642°W)
Time: 08:20:55
(UTC-05:00)

Envisat - Pass Details

Date: 29 October 2019
Orbit: 764 x 766 km, 98.1° (Epoch: 17 November)

Event Time Altitude Azimuth Distance (km) Brightness Sun altitude
Rises 06:38:43 0° 24° (NNE) 3,243 6.4 -7.4°
Reaches altitude 10° 06:41:27 10° 38° (NE) 2,311 5.8 -7.0°
Maximum altitude 06:45:35 25° 92° (E) 1,528 5.7 -6.3°
Drops below altitude 10° 06:49:41 10° 147° (SSE) 2,296 6.2 -5.7°
Sets 06:52:23 0° 160° (SSE) 3,217 6.7 -5.2°
